TIANMU-1 08

Last updated on Wed Jul 16 2025 00:02:22 GMT+0000 (Coordinated Universal Time)

1 57400U 23101B 25196.58952808 .00004336 00000+0 17424-3 0 9997 2 57400 97.3075 249.6634 0004690 243.9458 116.1298 15.25448337110245
UTC large
Height (km)
Speed (km/s)
/
Latitude / Longitude
Inclination (degrees)
Orbital Period (minutes)
Azimuth
Elevation
Range (km)
Doppler Factor

Next 0 passes for location: London (51.5072 / 0.1276)

Sorry there are no passes over London.